• In United Kingdom
  • List of Countries
  • For 7 days
  • Water Temperature
  • Satellite Maps
  • Weather Map
  • Weather Widgets
  • user-avatar
    Login

    Hourly Weather Tskhaltubo

    Today, 25 November, Saturday

    Time Temperature Precipitation Wind Pressure Humidity
    00:00 +2°C° 1.2 mm 1 mps 749 mmHg 94%
    01:00 +2°C° 0.9 mm 1 mps 749 mmHg 94%
    02:00 +2°C° 0.9 mm 1 mps 750 mmHg 93%
    03:00 +2°C° 0 mm 0 mps 750 mmHg 93%
    04:00 +1°C° 0.4 mm 0 mps 751 mmHg 93%
    05:00 +1°C° 0.4 mm 0 mps 752 mmHg 92%
    06:00 +1°C° 0.4 mm 0 mps 752 mmHg 92%
    07:00 +1°C° 0 mm 0 mps 753 mmHg 89%
    08:00 +2°C° 0 mm 0 mps 753 mmHg 86%
    09:00 +3°C° 0 mm 1 mps 754 mmHg 83%
    10:00 +4°C° 0 mm 1 mps 753 mmHg 79%
    11:00 +6°C° 0 mm 1 mps 753 mmHg 76%
    12:00 +7°C° 0 mm 1 mps 753 mmHg 72%
    13:00 +7°C° 0 mm 1 mps 753 mmHg 73%
    14:00 +6°C° 0 mm 1 mps 752 mmHg 75%
    15:00 +6°C° 0 mm 1 mps 752 mmHg 76%
    16:00 +5°C° 0 mm 1 mps 753 mmHg 78%
    17:00 +3°C° 0 mm 2 mps 753 mmHg 81%
    18:00 +1°C° 0 mm 2 mps 753 mmHg 83%
    19:00 +1°C° 0 mm 2 mps 753 mmHg 79%
    20:00 +1°C° 0 mm 2 mps 753 mmHg 76%
    21:00 0°C° 0 mm 3 mps 753 mmHg 72%
    22:00 0°C° 0 mm 3 mps 753 mmHg 69%
    23:00 0°C° 0 mm 3 mps 753 mmHg 67%

    Tomorrow, 26 November, Sunday

    Time Temperature Precipitation Wind Pressure Humidity
    00:00 0°C° 0 mm 3 mps 753 mmHg 65%
    01:00 0°C° 0 mm 3 mps 753 mmHg 64%
    02:00 0°C° 0 mm 3 mps 752 mmHg 63%
    03:00 0°C° 0 mm 3 mps 752 mmHg 62%
    04:00 0°C° 0 mm 3 mps 752 mmHg 62%
    05:00 0°C° 0 mm 3 mps 752 mmHg 61%
    06:00 0°C° 0 mm 3 mps 752 mmHg 60%
    07:00 +1°C° 0 mm 3 mps 752 mmHg 59%
    08:00 +2°C° 0 mm 3 mps 751 mmHg 58%
    09:00 +4°C° 0 mm 2 mps 751 mmHg 56%
    10:00 +6°C° 0 mm 2 mps 750 mmHg 55%
    11:00 +8°C° 0 mm 2 mps 750 mmHg 54%
    12:00 +9°C° 0 mm 2 mps 749 mmHg 52%
    13:00 +9°C° 0 mm 2 mps 749 mmHg 56%
    14:00 +10°C° 0 mm 1 mps 748 mmHg 59%
    15:00 +10°C° 0 mm 1 mps 748 mmHg 63%
    16:00 +8°C° 0 mm 1 mps 749 mmHg 65%
    17:00 +6°C° 0 mm 2 mps 749 mmHg 67%
    18:00 +4°C° 0 mm 2 mps 750 mmHg 68%
    19:00 +3°C° 0 mm 2 mps 750 mmHg 66%
    20:00 +3°C° 0 mm 2 mps 750 mmHg 64%
    21:00 +3°C° 0 mm 2 mps 750 mmHg 62%
    22:00 +3°C° 0 mm 2 mps 749 mmHg 61%
    23:00 +3°C° 0 mm 2 mps 749 mmHg 61%

    Day after tomorrow, 27 November, Monday

    Time Temperature Precipitation Wind Pressure Humidity
    00:00 +3°C° 0 mm 2 mps 749 mmHg 61%
    01:00 +3°C° 0 mm 2 mps 749 mmHg 62%
    02:00 +3°C° 0 mm 2 mps 749 mmHg 63%
    03:00 +3°C° 0 mm 2 mps 749 mmHg 63%
    04:00 +3°C° 0 mm 2 mps 749 mmHg 64%
    05:00 +3°C° 0 mm 2 mps 749 mmHg 65%
    06:00 +3°C° 0 mm 2 mps 749 mmHg 65%
    07:00 +4°C° 0 mm 2 mps 749 mmHg 64%
    08:00 +5°C° 0 mm 2 mps 749 mmHg 64%
    09:00 +6°C° 0 mm 2 mps 749 mmHg 63%
    10:00 +9°C° 0 mm 1 mps 749 mmHg 60%
    11:00 +10°C° 0 mm 1 mps 748 mmHg 58%
    12:00 +12°C° 0 mm 1 mps 748 mmHg 55%
    13:00 +12°C° 0 mm 1 mps 748 mmHg 59%
    14:00 +12°C° 0 mm 1 mps 748 mmHg 62%
    15:00 +11°C° 0 mm 1 mps 747 mmHg 65%
    16:00 +10°C° 0 mm 1 mps 748 mmHg 69%
    17:00 +8°C° 0 mm 1 mps 748 mmHg 72%
    18:00 +6°C° 0 mm 2 mps 749 mmHg 75%
    19:00 +5°C° 0 mm 2 mps 749 mmHg 74%
    20:00 +5°C° 0 mm 2 mps 749 mmHg 72%
    21:00 +5°C° 0 mm 2 mps 749 mmHg 71%
    22:00 +5°C° 0 mm 2 mps 749 mmHg 69%
    23:00 +5°C° 0 mm 2 mps 749 mmHg 68%

    28 November, Tuesday

    Time Temperature Precipitation Wind Pressure Humidity
    00:00 +5°C° 0 mm 2 mps 749 mmHg 67%
    01:00 +5°C° 0 mm 2 mps 749 mmHg 66%
    02:00 +5°C° 0 mm 2 mps 749 mmHg 65%
    03:00 +5°C° 0 mm 2 mps 749 mmHg 64%
    04:00 +4°C° 0 mm 3 mps 749 mmHg 63%
    05:00 +4°C° 0 mm 3 mps 749 mmHg 62%
    06:00 +4°C° 0 mm 3 mps 749 mmHg 61%
    07:00 +5°C° 0 mm 3 mps 749 mmHg 59%
    08:00 +7°C° 0 mm 2 mps 748 mmHg 58%
    09:00 +8°C° 0 mm 2 mps 748 mmHg 56%
    10:00 +9°C° 0 mm 2 mps 748 mmHg 54%
    11:00 +12°C° 0 mm 2 mps 747 mmHg 53%
    12:00 +14°C° 0 mm 2 mps 747 mmHg 51%
    13:00 +14°C° 0 mm 2 mps 746 mmHg 54%
    14:00 +13°C° 0 mm 2 mps 746 mmHg 56%
    15:00 +13°C° 0 mm 2 mps 746 mmHg 59%
    16:00 +12°C° 0 mm 2 mps 746 mmHg 59%
    17:00 +9°C° 0 mm 2 mps 747 mmHg 60%
    18:00 +8°C° 0 mm 3 mps 747 mmHg 60%
    19:00 +7°C° 0 mm 3 mps 747 mmHg 58%
    20:00 +7°C° 0 mm 3 mps 747 mmHg 55%
    21:00 +7°C° 0 mm 3 mps 748 mmHg 52%
    22:00 +7°C° 0 mm 3 mps 748 mmHg 51%
    23:00 +7°C° 0 mm 3 mps 748 mmHg 50%

    29 November, Wednesday

    Time Temperature Precipitation Wind Pressure Humidity
    00:00 +7°C° 0 mm 3 mps 748 mmHg 49%
    01:00 +7°C° 0 mm 3 mps 748 mmHg 49%
    02:00 +7°C° 0 mm 3 mps 748 mmHg 50%
    03:00 +7°C° 0 mm 3 mps 748 mmHg 50%
    04:00 +7°C° 0 mm 3 mps 748 mmHg 50%
    05:00 +7°C° 0 mm 3 mps 747 mmHg 51%
    06:00 +7°C° 0 mm 3 mps 747 mmHg 52%
    07:00 +8°C° 0 mm 3 mps 747 mmHg 51%
    08:00 +9°C° 0 mm 3 mps 747 mmHg 51%
    09:00 +9°C° 0 mm 3 mps 747 mmHg 50%
    10:00 +11°C° 0 mm 3 mps 746 mmHg 49%
    11:00 +12°C° 0 mm 3 mps 746 mmHg 48%
    12:00 +14°C° 0 mm 3 mps 745 mmHg 47%
    13:00 +13°C° 0 mm 3 mps 745 mmHg 50%
    14:00 +14°C° 0 mm 2 mps 745 mmHg 53%
    15:00 +14°C° 0 mm 2 mps 745 mmHg 56%
    16:00 +13°C° 0 mm 2 mps 745 mmHg 57%
    17:00 +12°C° 0 mm 2 mps 745 mmHg 58%
    18:00 +10°C° 0 mm 2 mps 746 mmHg 59%
    19:00 +9°C° 0 mm 2 mps 746 mmHg 60%
    20:00 +9°C° 0 mm 2 mps 746 mmHg 60%
    21:00 +9°C° 0 mm 2 mps 746 mmHg 61%
    22:00 +9°C° 0.2 mm 2 mps 746 mmHg 63%
    23:00 +9°C° 0.2 mm 2 mps 747 mmHg 65%

    30 November, Thursday

    Time Temperature Precipitation Wind Pressure Humidity
    00:00 +9°C° 0.2 mm 2 mps 747 mmHg 67%
    01:00 +10°C° 0.5 mm 1 mps 747 mmHg 70%
    02:00 +9°C° 0.5 mm 1 mps 747 mmHg 73%
    03:00 +9°C° 0.5 mm 1 mps 747 mmHg 75%
    04:00 +9°C° 0.8 mm 1 mps 748 mmHg 77%
    05:00 +9°C° 0.8 mm 1 mps 748 mmHg 79%
    06:00 +9°C° 0.8 mm 1 mps 748 mmHg 81%
    07:00 +9°C° 0.6 mm 1 mps 748 mmHg 82%
    08:00 +8°C° 0.6 mm 0 mps 749 mmHg 82%
    09:00 +8°C° 0.6 mm 0 mps 749 mmHg 83%
    10:00 +9°C° 0.5 mm 0 mps 749 mmHg 83%
    11:00 +9°C° 0.5 mm 0 mps 749 mmHg 84%
    12:00 +9°C° 0.5 mm 0 mps 749 mmHg 84%
    13:00 +9°C° 0.7 mm 0 mps 749 mmHg 85%
    14:00 +10°C° 0.7 mm 1 mps 749 mmHg 87%
    15:00 +10°C° 0.7 mm 1 mps 749 mmHg 88%
    16:00 +10°C° 0.4 mm 1 mps 749 mmHg 88%
    17:00 +10°C° 0.4 mm 1 mps 750 mmHg 88%
    18:00 +9°C° 0.4 mm 1 mps 750 mmHg 89%
    19:00 +9°C° 0.1 mm 1 mps 750 mmHg 88%
    20:00 +9°C° 0.1 mm 1 mps 750 mmHg 88%
    21:00 +9°C° 0.1 mm 1 mps 751 mmHg 87%
    22:00 +9°C° 0 mm 1 mps 751 mmHg 87%
    23:00 +9°C° 0 mm 1 mps 751 mmHg 86%
    Show more